Helicity
76 76 62 58 62 72 83 95 80 67 61 53 41 29 19 13 -8 -8 -9 -0 13 -15 -12 -0 9 16 25 27 30 44 38 46 64 41 41 46 28 37 60 60 57 56 88 146 192
97 85 85 73 63 65 77 86 94 84 62 60 39 25 16 18 -8 -12 21 10 7 -11 -4 5 9 10 21 27 28 39 35 49 49 59 62 33 -2 73 40 30 38 74 150 168 188
91 97 84 90 84 71 71 81 90 87 84 55 34 9 15 6 -7 29 40 11 -4 -12 -11 -28 -27 8 -10 28 16 18 35 42 41 69 43 42 35 75 41 23 57 80 159 138 167
74 83 89 88 84 85 73 73 82 95 88 76 37 18 18 8 14 35 18 11 5 -12 -5 8 -0 4 -2 17 29 30 15 50 55 41 36 42 60 65 44 23 93 78 150 257 165
75 74 73 84 84 85 88 80 74 86 95 81 51 38 20 17 25 34 22 34 31 24 17 14 4 2 -10 21 64 35 34 49 62 42 30 58 42 45 11 45 70 108 125 198 152
83 77 73 70 79 79 89 87 82 79 81 70 54 47 30 24 48 48 39 43 43 39 41 15 33 48 18 41 37 68 63 35 39 23 33 41 33 72 12 42 42 124 80 47 111
87 85 75 76 72 75 86 98 97 93 74 48 45 45 34 43 58 49 35 51 50 53 52 53 48 46 56 28 59 52 33 33 37 40 57 48 22 49 119 60 63 73 110 30 21
80 88 83 84 89 80 80 97 108 94 55 40 46 41 37 72 78 63 58 66 53 59 73 74 59 73 81 64 29 33 40 35 57 60 57 65 43 60 41 93 59 44 49 53 27
92 90 92 85 101 106 102 101 97 62 39 39 54 54 45 50 66 80 65 76 71 68 72 73 80 78 58 42 25 30 21 25 49 49 65 63 35 76 70 63 35 24 42 88 71
67 101 91 97 81 104 126 111 75 59 49 47 90 99 75 81 90 105 110 87 106 88 92 84 81 72 58 64 32 32 20 22 44 47 67 58 43 -17 20 78 61 52 49 99 140
47 74 97 98 120 98 138 99 101 72 87 97 92 143 83 95 81 100 103 96 113 124 97 88 104 85 55 39 31 72 72 52 47 88 79 62 41 28 35 51 89 98 86 33 65
71 62 79 97 107 142 128 154 166 154 101 45 124 152 123 85 111 103 117 111 126 105 111 137 81 49 83 142 115 93 59 54 44 107 68 19 -7 26 93 76 79 59 44 50 64
84 76 71 92 115 128 123 124 102 119 120 79 137 123 130 122 135 114 111 141 116 109 122 128 108 124 131 131 118 84 73 65 67 94 34 9 -40 19 63 27 19 50 72 79 79
102 87 76 90 114 117 124 92 94 117 156 105 116 146 168 188 177 172 112 186 142 134 117 102 136 123 119 120 101 110 167 97 125 107 59 78 -15 12 16 72 22 64 207 198 175
124 86 84 79 214 131 120 100 103 136 201 145 217 233 230 247 195 192 263 227 165 118 185 132 120 139 132 124 133 130 172 183 146 123 125 89 76 -16 46 164 176 155 173 191 148
85 144 125 148 143 189 109 121 164 265 245 182 183 199 292 312 279 242 211 264 229 232 172 203 192 158 187 201 232 144 169 176 165 151 123 52 124 13 113 164 241 245 122 137 178
96 75 182 192 152 130 111 200 334 383 195 241 207 183 189 238 240 250 248 269 268 264 189 140 168 225 192 218 252 185 169 191 184 210 136 139 120 61 105 183 174 254 257 161 166
101 99 125 202 178 151 183 280 373 269 346 216 216 246 196 217 156 161 172 209 148 193 258 176 178 220 151 227 142 162 209 223 133 129 118 216 131 155 263 268 270 280 220 275 298
122 146 171 159 131 243 302 372 484 344 192 285 250 316 255 198 255 207 179 166 107 123 203 152 163 229 193 220 265 185 216 194 244 220 240 206 182 260 295 295 318 365 411 388 313
178 192 164 130 140 169 350 379 339 352 257 258 244 219 244 215 254 163 140 129 203 134 92 251 216 180 162 175 191 210 231 243 288 203 174 148 138 200 263 270 287 299 307 305 281
212 330 141 106 178 229 316 400 357 250 294 244 249 218 211 239 230 246 165 244 132 154 127 224 245 222 198 188 210 277 244 212 201 240 234 235 259 270 408 393 288 242 243 221 198
241 297 287 152 252 214 271 246 272 294 284 341 341 349 291 277 212 201 182 237 346 213 218 188 207 207 187 226 264 247 224 274 297 238 233 228 300 270 265 290 265 243 215 185 126
295 255 318 364 348 358 262 172 191 301 265 312 341 346 396 375 308 278 294 324 314 260 224 273 248 316 346 342 284 305 289 295 247 269 298 285 312 248 262 235 207 188 171 80 -0
194 249 123 345 274 250 270 256 250 397 269 295 303 292 300 331 305 283 289 259 260 265 310 320 316 267 249 165 226 249 248 218 250 338 275 262 270 337 364 319 254 189 153 96 51
86 271 261 343 499 568 327 361 402 507 449 478 427 337 300 293 265 254 300 223 226 239 271 292 270 288 286 339 319 281 276 226 220 224 252 226 219 305 303 273 252 171 120 96 85
35 104 100 189 381 561 565 516 416 643 571 486 372 296 248 224 266 184 256 239 194 241 226 260 189 212 161 218 241 185 201 217 230 221 203 211 281 263 237 216 219 166 131 137 149
26 40 66 145 260 300 533 645 471 412 431 313 230 281 289 235 196 189 207 247 214 163 225 210 185 184 150 158 181 169 186 200 226 296 308 286 396 388 383 290 205 148 75 100 153
Wind_Speed
52 50 46 44 42 41 41 42 40 40 41 41 40 38 37 36 29 25 23 26 25 25 26 25 27 26 28 27 30 31 33 44 40 35 32 31 26 31 34 31 30 25 33 26 18
57 54 51 48 46 44 44 44 43 43 43 43 41 39 37 36 26 18 23 26 27 24 24 28 27 20 24 26 28 29 32 36 35 34 36 30 27 22 33 32 33 25 24 20 13
60 58 55 52 50 47 46 46 46 46 46 45 42 37 38 33 32 25 24 25 25 23 23 22 24 22 18 24 25 29 32 33 34 36 38 33 28 30 29 38 24 18 7 10 8
64 61 60 56 53 51 49 48 48 48 47 46 41 38 37 30 34 26 24 25 25 22 22 23 23 21 19 18 19 33 39 40 37 37 37 35 38 28 19 26 37 25 11 5 7
68 65 62 59 57 55 52 51 50 50 49 46 40 38 34 32 33 23 23 25 23 22 19 19 19 18 16 18 23 29 41 37 39 40 41 45 42 38 41 6 27 29 32 7 3
72 68 66 62 59 57 56 54 53 51 51 46 41 39 36 40 24 24 23 22 21 19 18 16 19 21 20 22 19 33 38 40 37 39 41 44 46 39 39 5 20 15 20 20 7
75 71 68 65 62 59 58 57 56 55 52 44 40 38 41 41 26 25 22 26 22 22 19 20 25 17 23 19 28 31 34 31 32 36 41 39 51 35 4 39 29 20 17 15 10
77 74 70 67 64 61 60 59 59 56 48 41 39 38 47 33 29 27 22 26 26 25 27 24 24 26 26 26 26 30 31 37 28 23 35 36 51 48 29 20 24 26 21 16 14
78 75 71 68 65 63 62 61 59 50 43 40 40 41 50 31 32 25 28 26 23 25 26 24 22 25 23 25 28 24 37 32 31 23 36 27 45 34 34 32 36 31 22 16 15
79 76 71 67 64 63 62 60 50 46 44 42 46 49 41 38 30 27 29 23 27 21 25 24 24 26 24 21 33 35 30 36 37 29 31 34 35 68 58 38 35 34 35 22 13
79 77 73 68 65 60 58 52 54 57 54 53 49 48 39 34 30 29 26 24 27 29 31 28 32 28 20 14 28 44 45 48 52 35 41 43 13 61 62 53 28 28 33 45 42
78 75 72 67 64 59 56 58 53 45 60 59 56 52 42 38 41 32 25 28 31 36 28 36 42 33 36 33 35 40 47 49 52 34 48 61 71 64 24 29 25 53 54 47 43
79 73 69 63 61 61 63 62 43 45 64 60 56 58 55 42 49 37 27 36 40 41 32 42 44 36 36 39 42 44 48 51 52 50 50 65 69 50 52 20 25 47 42 44 47
79 72 66 57 63 63 65 48 42 40 73 75 65 57 49 45 59 41 36 40 42 49 46 52 48 46 44 45 38 55 50 46 52 55 58 47 69 61 61 34 30 35 31 36 41
81 73 66 61 59 57 47 35 32 39 96 60 58 43 44 52 43 50 42 48 53 50 46 51 49 48 51 48 39 51 45 45 48 54 62 56 61 56 37 36 31 32 35 40 42
88 73 62 64 62 51 35 30 33 64 98 65 49 54 53 56 53 45 46 45 49 59 54 59 48 47 49 45 45 31 41 44 48 52 71 55 49 62 42 38 31 39 40 42 45
81 73 69 59 67 46 36 40 63 90 54 67 59 53 54 55 55 53 53 54 54 57 64 58 56 49 44 48 44 39 40 61 66 63 68 52 51 49 52 37 35 39 41 42 45
75 61 59 65 52 42 46 52 87 84 70 48 51 48 58 45 54 53 51 62 61 57 55 55 62 46 46 50 50 43 41 53 71 66 63 47 59 52 26 28 31 35 38 41 46
67 67 66 61 49 50 55 79 88 70 59 59 47 58 63 54 51 48 56 58 53 49 52 52 56 43 37 42 40 43 51 46 58 59 64 54 43 40 33 37 36 40 44 46 47
58 66 73 58 49 52 78 98 86 67 51 56 75 62 69 61 61 56 56 57 58 45 45 51 54 45 42 38 39 41 37 48 49 68 74 62 53 53 39 36 38 42 47 49 49
57 68 64 53 52 67 95 93 79 63 60 63 75 72 67 64 61 64 61 57 48 51 47 51 53 52 42 51 46 46 48 45 45 53 67 73 62 37 37 40 43 46 48 49 52
54 78 53 56 73 79 100 86 69 59 56 60 62 62 63 56 61 63 63 56 47 44 54 53 55 61 60 46 45 49 54 50 64 68 65 68 67 36 37 40 41 43 47 50 53
58 58 46 50 84 87 84 84 79 64 65 61 62 57 55 57 61 57 51 49 45 48 50 47 60 64 62 57 55 63 63 64 67 69 75 77 71 40 42 46 47 48 51 51 54
45 74 53 58 62 79 83 77 81 64 59 60 58 51 54 64 58 56 57 51 46 48 47 48 59 66 76 65 51 63 63 64 67 77 79 81 72 57 54 55 55 55 56 58 61
41 47 52 63 66 71 75 67 68 65 60 55 62 60 60 64 62 64 55 47 43 43 44 50 72 70 72 63 60 60 62 62 69 73 81 76 71 58 56 57 58 56 60 66 70
42 42 37 42 45 46 72 74 69 58 58 65 65 61 61 67 63 62 58 58 58 49 48 50 69 66 83 70 74 83 75 74 72 70 76 75 71 52 54 57 62 64 65 70 76
37 37 42 40 44 48 48 61 56 48 54 55 59 59 61 61 52 51 49 51 54 58 61 62 65 72 97 74 75 100 85 80 80 75 77 88 67 56 62 64 66 67 62 67 73
Wind_Direction
269 271 275 279 283 287 288 290 298 299 299 301 296 302 311 317 4 56 49 52 57 60 34 8 310 311 297 303 293 291 289 261 281 297 305 316 320 313 303 310 320 341 326 349 54
268 270 273 276 280 285 288 290 293 297 300 299 300 298 314 320 359 52 23 33 41 66 83 101 92 37 331 312 302 295 294 291 298 304 306 326 321 338 306 304 310 332 352 2 45
266 269 270 274 278 282 287 289 292 296 299 303 301 305 308 326 332 354 2 10 37 72 96 84 91 79 43 325 316 303 297 301 303 305 303 316 323 321 322 302 326 332 32 20 43
265 267 269 272 276 280 284 289 291 295 300 301 303 306 309 323 309 356 4 15 35 57 87 87 97 74 34 2 337 307 291 294 303 307 307 311 310 326 328 320 324 334 0 79 118
263 265 267 270 273 277 282 286 290 294 297 299 303 306 312 311 310 350 354 5 28 35 59 85 95 77 49 10 335 314 297 306 303 304 300 297 303 310 308 318 321 324 317 5 63
261 263 265 268 271 275 279 282 286 290 293 297 301 303 304 296 333 337 342 352 2 21 27 48 21 358 14 354 351 319 307 306 310 307 304 302 299 310 314 332 315 333 330 319 332
260 261 263 266 269 273 277 280 283 286 289 294 299 302 294 295 323 329 336 331 340 344 356 355 343 15 354 12 332 327 324 322 317 310 307 311 299 312 321 309 317 320 325 327 323
258 259 261 264 268 271 275 278 281 284 288 291 296 298 288 306 312 314 322 322 324 327 324 331 330 332 334 339 346 334 332 322 331 333 317 314 301 311 322 327 324 321 322 321 315
257 258 260 262 266 270 274 277 280 283 286 288 290 289 284 308 301 307 303 314 321 322 321 325 334 329 335 331 336 341 321 327 332 338 321 323 306 322 325 323 313 316 322 324 321
254 256 259 262 265 269 273 276 279 281 280 283 282 282 283 292 301 301 300 303 309 318 316 316 319 315 317 318 318 323 325 323 320 331 325 322 315 260 290 313 311 309 307 311 307
250 254 256 260 264 267 272 269 268 269 267 267 275 274 283 295 297 294 300 299 302 298 295 299 296 294 298 297 306 309 309 308 304 322 319 317 237 249 294 299 306 306 306 298 298
249 251 254 258 261 266 266 260 266 276 269 266 269 272 281 285 282 283 290 288 288 285 289 294 287 292 300 306 303 305 304 305 306 318 311 300 268 255 241 229 224 295 295 299 303
246 248 252 256 261 261 257 260 273 277 270 269 267 268 269 271 274 272 271 281 284 280 278 283 297 302 293 296 296 298 298 301 302 308 310 299 289 313 315 340 326 299 301 303 305
242 245 248 252 257 255 256 260 269 276 264 263 264 266 265 269 269 275 269 279 279 280 281 284 287 289 291 291 294 292 300 299 301 303 300 312 292 304 303 321 332 326 330 323 319
242 241 242 240 257 247 259 257 262 268 256 262 258 272 264 258 267 269 274 272 271 277 279 282 286 285 284 289 292 294 302 301 301 298 296 297 294 294 322 330 336 342 341 333 332
242 237 237 243 251 256 255 250 252 251 253 257 262 258 257 259 264 271 269 274 278 275 277 279 291 288 289 293 291 299 301 304 302 298 287 293 292 290 305 314 326 330 337 339 337
243 234 231 238 244 244 245 239 242 247 254 256 259 257 256 258 260 263 262 261 264 270 272 277 277 284 286 286 290 287 290 289 288 287 287 296 288 294 303 321 332 331 331 336 339
233 228 231 237 244 234 235 234 245 251 250 263 262 256 257 257 261 261 262 263 261 267 278 273 278 275 277 280 282 274 279 285 286 286 289 296 288 297 323 335 340 340 343 343 341
223 228 234 233 234 231 232 236 244 252 252 252 256 258 257 256 266 261 261 266 266 256 267 274 277 284 285 283 286 283 273 289 289 292 289 291 298 312 313 317 324 325 329 332 338
221 228 232 228 229 227 231 240 248 255 260 253 252 257 257 256 257 258 259 270 268 258 261 279 280 283 283 284 281 285 288 282 286 284 284 291 292 291 302 310 316 320 324 327 331
226 231 234 222 223 229 233 241 247 254 256 254 255 257 261 257 256 259 264 274 263 270 256 272 275 280 280 272 268 273 279 285 289 287 286 289 293 307 306 312 312 317 322 324 328
231 231 236 217 222 231 237 237 247 252 254 258 261 260 259 259 256 260 262 272 275 269 264 266 277 275 276 282 278 273 274 274 279 285 287 288 288 307 311 315 319 322 324 325 327
237 235 248 227 228 232 240 239 244 253 249 255 258 260 264 260 263 261 263 274 276 270 270 266 272 273 278 282 280 276 274 277 278 283 279 284 288 302 306 308 314 316 320 323 325
244 235 248 241 246 232 230 240 237 249 252 254 259 260 260 260 264 265 266 274 276 275 278 276 273 271 273 284 283 278 275 275 275 278 281 277 287 290 296 300 306 312 316 318 321
252 248 245 237 235 239 229 240 230 245 252 256 256 257 258 260 261 263 269 274 282 280 279 277 272 277 278 283 288 284 282 281 276 279 279 287 287 290 297 302 306 310 313 316 317
252 250 254 252 242 239 227 239 234 244 250 253 255 256 260 261 263 264 268 271 273 277 278 281 277 281 277 282 284 282 282 280 281 282 283 285 287 295 300 303 305 307 310 313 315
262 263 252 251 244 242 243 241 240 236 259 261 258 256 261 263 268 273 276 278 277 275 274 277 277 280 277 283 285 280 280 279 281 283 284 282 288 294 297 300 303 306 309 313 317